Location: Unspecified
(47.5840°N, 122.3000°W)
Time: 22:49:35
(UTC+00:00)

IRIDIUM 114 - Visible Passes

Search period start: 14 March 2026 00:00
Search period end: 24 March 2026 00:00
Orbit: 776 x 779 km, 86.4° (Epoch: 14 March)

Date Brightness Start Highest point End Pass type
(mag) Time Alt. Az. Time Alt. Az. Time Alt. Az.
14 Mar 5.9 04:51:21 23° NNE 04:51:21 23° NNE 04:53:34 10° NNE visible
14 Mar 6.6 06:31:47 21° NW 06:31:47 21° NW 06:34:06 10° NNW visible
15 Mar 6.0 04:17:28 19° NE 04:17:28 19° NE 04:19:31 10° NNE visible
15 Mar 5.9 05:57:54 32° NNW 05:57:54 32° NNW 06:00:55 10° N visible
16 Mar 6.2 03:43:32 13° ENE 03:43:32 13° ENE 03:44:51 10° NE visible
16 Mar 5.2 05:23:58 43° N 05:23:58 43° N 05:27:29 10° N visible
16 Mar 7.1 07:04:24 12° WNW 07:04:24 12° WNW 07:06:03 10° NW visible
17 Mar 4.9 04:50:00 44° NE 04:50:00 44° NE 04:53:51 10° NNE visible
17 Mar 6.5 06:30:26 21° WNW 06:30:26 21° WNW 06:33:49 10° NNW visible
18 Mar 5.1 04:16:00 31° ENE 04:16:00 31° ENE 04:19:59 10° NNE visible
18 Mar 5.7 05:56:25 35° WNW 05:56:25 35° WNW 06:00:50 10° NNW visible
19 Mar 5.7 03:41:54 19° E 03:42:09 19° ENE 03:45:45 10° NNE visible
19 Mar 4.7 05:22:20 61° W 05:22:21 61° W 05:27:33 10° N visible
20 Mar 6.2 03:07:46 10° E 03:09:01 11° ENE 03:10:22 10° ENE visible
20 Mar 4.2 04:48:11 67° SSE 04:48:48 78° E 04:54:02 10° N visible
20 Mar 6.8 06:28:36 14° W 06:30:12 16° WNW 06:33:17 10° NNW visible
21 Mar 4.6 04:13:57 36° SE 04:15:22 45° E 04:20:19 10° NNE visible
21 Mar 6.2 05:54:21 21° WSW 05:56:17 26° WNW 06:00:39 10° NNW visible
22 Mar 5.3 03:39:36 19° ESE 03:42:03 26° E 03:46:20 10° NNE visible
22 Mar 5.3 05:20:01 26° SW 05:22:31 44° W 05:27:31 10° N visible
23 Mar 5.9 03:05:53 10° ESE 03:08:51 16° ENE 03:11:51 10° NE visible
23 Mar 4.4 04:45:31 22° S 04:48:54 76° W 04:54:08 10° N visible
23 Mar 7.2 06:29:03 10° W 06:30:35 11° WNW 06:32:07 10° NW visible
